Theta_e
279 279 279 279 280 279 279 279 277 273 274 276 277 280 282 283 284 283 283 286 288 288 289 290 292 293 294 295 296 298 299 300 301 302 305 308 311 315
278 278 277 278 278 278 278 278 277 275 273 276 278 279 280 281 282 281 280 283 284 286 287 288 289 291 292 293 294 296 297 298 299 300 302 304 308 312
277 277 277 277 276 276 276 276 276 275 273 275 277 277 277 277 278 279 280 279 279 283 285 287 289 289 289 291 293 294 295 295 297 298 299 301 303 307
277 276 276 278 275 275 275 274 274 274 273 272 274 275 275 276 276 276 277 279 278 281 284 285 285 286 286 287 289 290 290 292 293 294 296 297 299 302
277 276 276 275 275 274 273 273 273 275 273 273 273 274 274 275 274 275 276 276 278 281 282 282 283 284 285 286 286 288 288 289 291 293 293 294 296 298
277 277 276 275 274 274 274 273 274 273 273 272 272 272 272 274 274 273 273 275 275 277 279 280 281 282 283 284 284 284 284 286 288 289 290 292 293 295
276 276 276 276 278 277 275 274 273 272 271 271 271 271 271 272 272 273 273 273 274 275 275 276 277 277 278 281 281 282 284 286 287 288 288 289 290 292
275 275 275 276 275 277 278 278 277 273 270 270 271 271 272 273 274 273 273 272 270 276 274 274 277 276 277 278 282 283 284 284 285 285 286 286 287 289
275 275 275 275 275 274 275 277 277 277 278 276 273 273 272 273 274 273 273 273 273 275 276 273 276 275 278 279 282 283 283 284 284 284 285 285 286 287
274 274 274 274 274 274 274 273 274 275 276 276 276 276 277 278 277 277 276 276 276 276 277 271 275 274 276 277 281 282 282 283 283 284 284 284 285 285
275 274 274 273 275 278 276 273 274 275 278 278 278 279 279 279 278 274 271 271 270 271 275 273 274 274 275 275 277 280 281 282 282 283 283 283 284 284
273 275 277 276 278 279 276 274 271 271 272 272 272 272 273 273 275 273 272 269 269 269 275 272 272 274 271 274 276 276 276 279 281 281 282 282 282 279
271 272 274 277 278 279 279 274 271 274 269 266 267 268 268 269 270 271 272 271 268 268 272 272 270 271 270 271 273 275 275 276 276 277 280 281 281 280
270 273 273 276 278 278 277 276 276 273 263 262 264 264 265 267 269 269 270 270 271 271 272 272 270 270 269 268 269 273 274 275 275 275 276 278 280 280
273 274 277 277 276 273 273 273 271 264 262 259 263 264 267 268 268 268 269 269 270 271 272 272 271 271 271 269 269 270 271 273 275 274 274 275 274 275
274 272 272 275 274 271 267 268 267 265 265 264 264 266 266 265 265 267 266 266 266 266 270 271 272 272 271 271 271 270 271 270 273 273 274 274 275 275
271 266 262 261 261 262 261 262 264 263 263 264 264 263 263 265 264 266 265 265 263 264 265 268 270 271 271 271 270 270 271 271 273 273 273 272 274 275
268 256 257 259 261 260 259 260 261 262 262 263 262 262 263 263 263 264 265 264 263 264 264 266 266 266 266 268 273 270 272 272 273 274 274 272 272 274
259 255 257 258 260 260 259 259 261 263 261 261 262 261 262 261 262 262 263 263 263 264 264 265 265 264 262 262 268 275 271 272 272 273 275 273 272 274
254 256 258 257 259 257 258 258 260 261 260 260 260 259 259 260 260 261 262 261 262 263 263 264 265 265 265 264 265 269 275 272 273 274 276 277 276 278
259 258 260 258 257 257 254 253 257 258 258 257 258 258 259 260 260 261 262 261 262 263 262 263 266 269 269 269 267 268 272 279 279 277 277 275 271 272
258 258 259 258 255 256 251 252 255 253 253 252 254 256 258 259 260 260 260 260 262 263 263 265 266 267 266 267 267 269 272 274 278 279 278 278 274 271
257 257 257 256 255 254 250 252 253 255 252 250 251 256 257 258 258 259 259 261 263 262 262 262 264 265 265 266 268 269 270 269 270 271 273 276 277 279
Wind_Speed
3 3 2 2 2 3 2 1 1 4 5 3 4 5 8 8 12 13 11 19 26 27 28 27 26 28 29 28 27 27 27 26 26 26 25 25 26 25
3 4 3 2 3 3 3 3 2 3 6 2 7 9 9 10 14 12 14 22 22 23 25 28 28 28 28 28 28 27 27 27 27 27 27 26 26 26
3 4 4 4 3 3 3 3 3 2 6 12 5 8 12 10 12 12 12 13 11 22 26 25 26 28 29 28 27 25 25 26 27 27 27 27 26 26
2 3 4 3 4 4 3 4 3 3 4 15 11 10 10 10 11 14 13 11 11 19 26 27 25 25 27 28 29 29 29 29 26 27 27 27 27 26
3 4 4 4 4 3 3 4 3 6 5 8 13 9 10 9 12 11 12 13 9 21 22 24 25 25 23 24 27 26 27 26 25 22 22 24 26 26
4 5 5 5 5 4 4 4 6 6 6 8 10 11 10 10 9 11 12 9 11 11 15 19 23 22 21 27 25 27 27 26 26 25 24 25 23 22
5 5 5 6 10 10 6 5 5 6 7 8 10 10 11 10 11 10 12 12 12 10 11 10 9 10 11 17 18 24 25 25 24 23 24 25 27 24
5 5 5 5 8 13 14 16 13 8 9 7 11 12 15 12 11 11 12 13 16 8 9 12 10 11 10 10 21 25 25 27 27 26 26 27 27 28
6 7 7 5 5 5 11 16 16 19 20 16 16 14 16 15 16 17 16 15 15 12 12 14 10 12 10 11 23 27 27 27 28 27 26 26 25 27
7 7 7 7 6 8 9 11 11 11 12 11 13 13 13 13 14 14 16 16 13 9 9 17 12 12 10 9 22 27 26 25 24 20 21 26 26 27
8 7 7 9 12 15 12 8 10 9 11 22 26 27 28 30 26 14 12 12 13 10 8 13 12 12 10 11 10 17 15 15 22 27 28 26 26 26
6 9 12 13 17 17 9 7 7 10 13 11 10 15 16 15 22 13 11 11 11 10 5 11 11 11 8 5 6 7 10 20 24 26 26 27 27 12
5 5 5 15 17 18 15 6 9 15 8 7 9 9 10 10 9 10 11 11 11 11 13 13 12 11 10 12 10 10 10 12 11 14 23 26 26 22
6 6 5 16 18 15 13 18 21 13 3 5 7 8 9 9 9 11 13 12 11 15 14 15 11 11 12 13 13 9 10 11 10 12 11 17 25 26
5 9 19 12 10 8 13 16 10 2 3 3 7 8 8 10 12 11 12 13 13 14 11 15 13 13 12 13 13 12 15 11 12 12 11 10 11 10
12 6 7 11 9 8 3 7 4 3 5 6 7 8 9 9 9 9 10 10 10 11 12 13 13 14 12 12 12 12 12 10 11 12 11 12 12 11
10 2 1 1 2 2 2 4 3 3 4 5 5 7 9 9 10 9 9 10 10 11 12 12 12 13 12 15 14 13 12 12 13 12 12 12 13 12
2 3 3 3 3 2 3 4 3 4 4 4 6 7 8 9 10 10 9 9 10 10 11 11 13 13 11 11 19 13 11 12 13 13 11 11 12 12
3 3 3 3 3 3 3 3 5 5 3 4 6 7 8 9 11 10 10 9 10 10 11 11 11 10 12 13 13 19 12 12 14 14 10 9 11 14
3 4 4 4 4 4 3 3 4 5 4 5 6 6 7 8 9 10 10 10 11 11 12 10 9 10 10 14 15 18 26 12 12 13 12 8 10 21
3 3 4 4 4 4 4 3 4 5 5 4 5 6 7 7 9 9 10 14 15 10 12 12 12 20 13 13 10 12 11 19 17 6 10 5 3 4
2 3 3 3 4 4 4 3 4 4 4 3 4 5 7 7 9 10 10 11 11 11 12 11 13 11 11 11 13 16 10 9 9 12 12 15 2 4
4 4 4 4 4 4 3 3 4 6 4 4 3 6 7 8 8 9 10 10 10 11 11 12 11 10 11 10 13 11 14 8 7 8 4 13 16 14
Wind_Direction
55 41 21 357 355 336 311 282 266 316 306 304 336 345 337 328 324 321 323 321 320 317 314 312 313 314 312 308 306 305 303 301 299 297 295 289 286 286
65 29 5 326 342 342 329 331 318 258 281 305 308 316 323 322 318 328 316 316 313 314 318 313 311 307 307 306 305 303 302 301 300 297 295 293 289 288
11 27 328 326 328 336 326 316 303 297 286 298 308 310 313 313 316 315 314 312 312 312 314 309 324 320 316 318 313 309 307 305 302 298 295 292 291 286
332 331 308 329 319 315 307 308 296 287 285 293 305 308 309 315 310 311 313 307 311 310 318 313 314 318 312 305 299 300 304 301 297 294 295 295 290 290
294 287 293 299 294 295 304 313 313 299 280 285 298 305 306 313 308 303 306 306 305 310 310 313 312 309 317 318 316 308 305 308 315 303 296 292 290 290
281 279 279 278 283 305 316 294 298 297 297 291 296 303 303 310 301 307 305 305 306 304 304 303 308 303 308 305 306 308 308 305 305 308 310 312 305 296
280 278 269 262 277 287 285 261 261 280 282 289 292 295 299 306 304 307 296 301 297 296 296 298 292 297 297 299 298 300 300 306 307 306 303 300 297 297
285 279 275 281 283 286 289 291 284 284 276 283 287 286 293 296 295 293 293 295 295 279 278 296 292 292 291 290 290 295 302 302 300 300 302 298 296 292
276 277 277 273 282 280 283 287 286 284 282 290 291 286 290 289 289 288 286 284 283 293 296 293 293 287 286 285 296 297 298 297 299 299 298 295 293 293
261 262 263 270 260 271 271 268 267 267 275 280 282 287 283 288 284 292 296 297 290 293 295 290 296 290 294 294 295 295 298 296 292 297 311 309 303 301
260 259 254 258 261 280 273 275 285 286 298 303 300 304 309 309 307 308 301 297 295 304 295 280 293 295 295 294 280 292 304 313 307 301 301 302 301 303
264 267 261 263 267 279 287 289 304 304 302 305 320 314 310 303 309 304 299 291 293 296 306 307 302 310 299 256 283 301 300 293 295 296 296 297 297 298
257 260 263 280 287 286 296 315 297 300 340 326 315 310 307 306 307 303 303 307 308 298 296 296 297 296 282 294 285 287 289 285 285 286 288 289 290 291
234 249 257 277 282 288 307 310 304 327 334 310 304 303 303 303 306 308 302 299 293 291 293 288 283 282 283 285 287 289 287 286 283 279 281 282 285 284
247 252 265 287 300 319 305 300 319 336 285 287 292 295 299 306 307 307 301 299 293 293 291 288 281 277 272 277 284 290 292 288 279 275 275 272 275 275
264 276 256 265 282 295 320 290 280 267 275 280 289 297 306 306 305 308 308 309 306 304 297 293 295 296 285 273 275 278 275 275 285 280 276 273 271 266
242 151 120 206 230 249 266 264 259 263 276 274 289 301 300 303 305 310 306 304 299 307 309 308 300 294 291 291 285 275 278 277 272 271 272 271 270 265
208 158 212 204 212 211 241 265 252 264 262 282 296 291 297 303 304 306 304 303 301 304 305 306 310 311 302 284 269 278 278 275 278 275 264 265 273 274
158 205 200 200 219 219 228 244 274 277 271 279 289 293 298 299 303 304 305 310 305 306 303 303 302 299 300 297 296 291 298 297 290 286 272 254 263 276
166 186 208 211 222 226 230 231 270 283 277 279 284 287 288 295 301 303 306 312 306 306 305 305 300 297 295 296 297 295 296 277 276 278 285 268 252 271
190 200 204 202 218 227 233 232 251 271 274 277 281 283 290 296 295 298 305 307 301 309 306 306 304 300 292 289 286 287 290 294 296 323 309 264 258 272
207 219 221 217 219 224 228 230 256 264 265 254 264 279 289 289 294 302 302 303 306 309 303 302 308 308 307 302 301 301 305 311 327 333 350 3 302 303
214 214 221 226 229 231 216 229 242 262 253 251 257 284 289 293 297 294 295 294 308 309 310 310 313 311 304 301 303 313 321 338 328 329 315 344 336 339